Time,TemperatureF,DewpointF,PressureIn,WindDirection,WindDirectionDegrees,WindSpeedMPH,WindSpeedGustMPH,Humidity,HourlyPrecipIn,Conditions,Clouds,dailyrainin,SoftwareType,DateUTC
2013-05-26 00:01:00,50.0,49.0,28.06,NNE,22,0.0,0.0,97,0.00,,,0.00,Rainwise IP-100,2013-05-26 04:01:00,
2013-05-26 00:06:00,50.0,49.0,28.06,NNE,22,0.0,0.0,97,0.00,,,0.00,Rainwise IP-100,2013-05-26 04:06:00,
2013-05-26 00:11:00,50.0,48.0,28.06,NNE,22,0.0,0.0,95,0.00,,,0.00,Rainwise IP-100,2013-05-26 04:11:00,
2013-05-26 00:16:00,50.0,49.0,28.07,NNE,22,0.0,0.0,98,0.00,,,0.00,Rainwise IP-100,2013-05-26 04:16:00,
2013-05-26 00:21:00,50.0,49.0,28.07,NNE,22,0.0,0.0,97,0.00,,,0.00,Rainwise IP-100,2013-05-26 04:21:00,
2013-05-26 00:26:00,50.0,50.0,28.07,NNE,22,0.0,0.0,99,0.00,,,0.00,Rainwise IP-100,2013-05-26 04:26:00,
2013-05-26 00:31:00,50.0,49.0,28.06,NNE,22,0.0,0.0,98,0.00,,,0.00,Rainwise IP-100,2013-05-26 04:31:00,
2013-05-26 00:36:00,50.0,50.0,28.06,NNE,22,0.0,0.0,99,0.00,,,0.00,Rainwise IP-100,2013-05-26 04:36:00,
2013-05-26 00:41:00,50.0,49.0,28.06,NNE,22,0.0,0.0,97,0.00,,,0.00,Rainwise IP-100,2013-05-26 04:41:00,
2013-05-26 00:46:00,50.0,50.0,28.06,NNE,22,0.0,0.0,99,0.00,,,0.00,Rainwise IP-100,2013-05-26 04:46:00,
2013-05-26 00:51:00,50.0,50.0,28.06,NNE,22,0.0,0.0,99,0.00,,,0.00,Rainwise IP-100,2013-05-26 04:51:00,
2013-05-26 00:56:00,50.0,50.0,28.06,NNE,22,0.0,0.0,99,0.00,,,0.00,Rainwise IP-100,2013-05-26 04:56:00,
2013-05-26 01:01:00,51.0,50.5,28.06,NNE,22,0.0,0.0,98,0.00,,,0.00,Rainwise IP-100,2013-05-26 05:01:00,
2013-05-26 01:06:00,51.0,50.5,28.06,NNE,22,0.0,0.0,98,0.00,,,0.00,Rainwise IP-100,2013-05-26 05:06:00,
2013-05-26 01:11:00,51.0,50.5,28.06,NNE,22,0.0,0.0,98,0.00,,,0.00,Rainwise IP-100,2013-05-26 05:11:00,
2013-05-26 01:16:00,51.0,50.5,28.06,NNE,22,0.0,0.0,98,0.00,,,0.00,Rainwise IP-100,2013-05-26 05:16:00,
2013-05-26 01:21:00,51.0,50.5,28.05,NNE,22,0.0,0.0,98,0.00,,,0.00,Rainwise IP-100,2013-05-26 05:21:00,
2013-05-26 01:26:00,51.0,50.5,28.05,NNE,22,0.0,0.0,98,0.00,,,0.00,Rainwise IP-100,2013-05-26 05:26:00,
2013-05-26 01:31:00,51.0,50.5,28.06,NNE,22,0.0,0.0,98,0.00,,,0.00,Rainwise IP-100,2013-05-26 05:31:00,
2013-05-26 01:36:00,50.0,49.0,28.06,NNE,22,0.0,0.0,98,0.00,,,0.00,Rainwise IP-100,2013-05-26 05:36:00,
2013-05-26 01:41:00,50.0,49.0,28.06,NNE,22,0.0,0.0,98,0.00,,,0.00,Rainwise IP-100,2013-05-26 05:41:00,
2013-05-26 01:46:00,50.0,49.0,28.06,NNE,22,0.0,0.0,97,0.00,,,0.00,Rainwise IP-100,2013-05-26 05:46:00,
2013-05-26 01:51:00,50.0,49.0,28.06,NNE,22,0.0,0.0,96,0.00,,,0.00,Rainwise IP-100,2013-05-26 05:51:00,
2013-05-26 01:56:00,50.0,49.0,28.06,NNE,22,0.0,0.0,96,0.00,,,0.00,Rainwise IP-100,2013-05-26 05:56:00,
2013-05-26 02:01:00,50.0,49.0,28.06,NNE,22,0.0,0.0,96,0.00,,,0.00,Rainwise IP-100,2013-05-26 06:01:00,
2013-05-26 02:06:00,50.0,48.0,28.06,NNE,22,0.0,0.0,95,0.00,,,0.00,Rainwise IP-100,2013-05-26 06:06:00,
2013-05-26 02:11:00,50.0,49.0,28.06,NNE,22,0.0,0.0,96,0.00,,,0.00,Rainwise IP-100,2013-05-26 06:11:00,
2013-05-26 02:16:00,50.0,48.0,28.06,NNE,22,0.0,0.0,95,0.00,,,0.00,Rainwise IP-100,2013-05-26 06:16:00,
2013-05-26 02:21:00,50.0,49.0,28.05,NNE,22,0.0,0.0,96,0.00,,,0.00,Rainwise IP-100,2013-05-26 06:21:00,
2013-05-26 02:26:00,50.0,48.0,28.05,NNE,22,0.0,0.0,95,0.00,,,0.00,Rainwise IP-100,2013-05-26 06:26:00,
2013-05-26 02:31:00,50.0,48.0,28.05,NNE,22,0.0,0.0,95,0.00,,,0.00,Rainwise IP-100,2013-05-26 06:31:00,
2013-05-26 02:36:00,50.0,48.0,28.05,NNE,22,0.0,0.0,94,0.00,,,0.00,Rainwise IP-100,2013-05-26 06:36:00,
2013-05-26 02:41:00,50.0,48.0,28.05,NNE,22,0.0,0.0,95,0.00,,,0.00,Rainwise IP-100,2013-05-26 06:41:00,
2013-05-26 02:46:00,50.0,49.0,28.05,NNE,22,0.0,0.0,96,0.00,,,0.00,Rainwise IP-100,2013-05-26 06:46:00,
2013-05-26 02:51:00,50.0,48.0,28.05,NNE,22,0.0,0.0,95,0.00,,,0.00,Rainwise IP-100,2013-05-26 06:51:00,
2013-05-26 02:56:00,50.0,48.0,28.05,NNE,22,0.0,0.0,94,0.00,,,0.00,Rainwise IP-100,2013-05-26 06:56:00,
2013-05-26 03:01:00,50.0,47.5,28.05,NNE,22,0.0,0.0,93,0.00,,,0.00,Rainwise IP-100,2013-05-26 07:01:00,
2013-05-26 03:06:00,50.0,48.0,28.05,NNE,22,0.0,0.0,95,0.00,,,0.00,Rainwise IP-100,2013-05-26 07:06:00,
2013-05-26 03:11:00,51.0,50.0,28.05,NNE,22,0.0,0.0,96,0.00,,,0.00,Rainwise IP-100,2013-05-26 07:11:00,
2013-05-26 03:16:00,51.0,50.0,28.05,NNE,22,0.0,0.0,95,0.00,,,0.00,Rainwise IP-100,2013-05-26 07:16:00,
2013-05-26 03:21:00,51.0,50.0,28.04,NNE,22,0.0,0.0,95,0.00,,,0.00,Rainwise IP-100,2013-05-26 07:21:00,
2013-05-26 03:26:00,51.0,49.0,28.04,NNE,22,0.0,0.0,92,0.00,,,0.00,Rainwise IP-100,2013-05-26 07:26:00,
2013-05-26 03:31:00,51.0,50.0,28.04,NNE,22,0.0,0.0,94,0.00,,,0.00,Rainwise IP-100,2013-05-26 07:31:00,
2013-05-26 03:36:00,51.0,49.0,28.04,NNE,22,0.0,0.0,93,0.00,,,0.00,Rainwise IP-100,2013-05-26 07:36:00,
2013-05-26 03:41:00,51.0,50.0,28.04,NNE,22,0.0,0.0,94,0.00,,,0.00,Rainwise IP-100,2013-05-26 07:41:00,
2013-05-26 03:46:00,51.0,49.0,28.04,NNE,22,0.0,0.0,91,0.00,,,0.00,Rainwise IP-100,2013-05-26 07:46:00,
2013-05-26 03:51:00,51.0,49.0,28.04,NNE,22,0.0,0.0,93,0.00,,,0.00,Rainwise IP-100,2013-05-26 07:51:00,
2013-05-26 03:56:00,51.0,49.0,28.04,NNE,22,0.0,0.0,92,0.00,,,0.00,Rainwise IP-100,2013-05-26 07:56:00,
2013-05-26 04:01:00,51.0,49.0,28.04,NNE,22,0.0,0.0,93,0.00,,,0.00,Rainwise IP-100,2013-05-26 08:01:00,
2013-05-26 04:06:00,51.0,49.0,28.04,NNE,22,0.0,0.0,93,0.00,,,0.00,Rainwise IP-100,2013-05-26 08:06:00,
2013-05-26 04:11:00,51.0,50.0,28.04,NNE,22,0.0,0.0,94,0.00,,,0.00,Rainwise IP-100,2013-05-26 08:11:00,
2013-05-26 04:16:00,51.0,49.0,28.04,NNE,22,0.0,0.0,93,0.00,,,0.00,Rainwise IP-100,2013-05-26 08:16:00,
2013-05-26 04:21:00,51.0,49.0,28.05,NNE,22,0.0,0.0,92,0.00,,,0.00,Rainwise IP-100,2013-05-26 08:21:00,
2013-05-26 04:26:00,51.0,47.0,28.05,NNE,22,0.0,0.0,84,0.00,,,0.00,Rainwise IP-100,2013-05-26 08:26:00,
2013-05-26 04:31:00,51.0,49.0,28.05,NNE,22,0.0,0.0,92,0.00,,,0.00,Rainwise IP-100,2013-05-26 08:31:00,
2013-05-26 04:36:00,51.0,47.0,28.05,NNE,22,0.0,0.0,85,0.00,,,0.00,Rainwise IP-100,2013-05-26 08:36:00,
2013-05-26 04:41:00,51.0,48.0,28.05,NNE,22,0.0,0.0,89,0.00,,,0.00,Rainwise IP-100,2013-05-26 08:41:00,
2013-05-26 04:46:00,51.0,47.5,28.05,NNE,22,0.0,0.0,88,0.00,,,0.00,Rainwise IP-100,2013-05-26 08:46:00,
2013-05-26 04:51:00,51.0,47.5,28.06,NNE,22,0.0,0.0,88,0.00,,,0.00,Rainwise IP-100,2013-05-26 08:51:00,
2013-05-26 04:56:00,51.0,50.5,28.06,NNE,22,0.0,1.0,97,0.00,,,0.00,Rainwise IP-100,2013-05-26 08:56:00,
2013-05-26 05:01:00,52.0,50.0,28.06,NNE,22,0.0,0.0,93,0.00,,,0.00,Rainwise IP-100,2013-05-26 09:01:00,
2013-05-26 05:06:00,53.0,51.0,28.06,ESE,112,0.0,3.0,96,0.00,,,0.00,Rainwise IP-100,2013-05-26 09:06:00,
2013-05-26 05:11:00,53.0,51.0,28.05,ESE,112,0.0,0.0,96,0.00,,,0.00,Rainwise IP-100,2013-05-26 09:11:00,
2013-05-26 05:16:00,52.0,50.0,28.05,WNW,292,0.0,0.0,92,0.00,,,0.00,Rainwise IP-100,2013-05-26 09:16:00,
2013-05-26 05:21:00,52.0,50.5,28.06,NW,315,0.0,1.0,96,0.00,,,0.00,Rainwise IP-100,2013-05-26 09:21:00,
2013-05-26 05:26:00,53.0,50.5,28.06,NNE,22,0.0,2.0,92,0.00,,,0.00,Rainwise IP-100,2013-05-26 09:26:00,
2013-05-26 05:31:00,53.0,51.0,28.06,North,360,0.0,0.0,95,0.00,,,0.00,Rainwise IP-100,2013-05-26 09:31:00,
2013-05-26 05:36:00,52.0,50.0,28.06,SE,135,0.0,1.0,93,0.00,,,0.00,Rainwise IP-100,2013-05-26 09:36:00,
2013-05-26 05:41:00,52.0,50.5,28.06,SE,135,0.0,1.0,94,0.00,,,0.00,Rainwise IP-100,2013-05-26 09:41:00,
2013-05-26 05:46:00,52.0,50.0,28.06,SE,135,0.0,0.0,93,0.00,,,0.00,Rainwise IP-100,2013-05-26 09:46:00,
2013-05-26 05:51:00,52.0,50.5,28.06,SE,135,0.0,0.0,94,0.00,,,0.00,Rainwise IP-100,2013-05-26 09:51:00,
2013-05-26 05:56:00,52.0,50.5,28.06,SE,135,0.0,0.0,95,0.00,,,0.00,Rainwise IP-100,2013-05-26 09:56:00,
2013-05-26 06:01:00,52.0,50.0,28.06,SE,135,0.0,0.0,93,0.00,,,0.00,Rainwise IP-100,2013-05-26 10:01:00,
2013-05-26 06:06:00,51.0,49.0,28.06,SE,135,0.0,0.0,93,0.00,,,0.00,Rainwise IP-100,2013-05-26 10:06:00,
2013-05-26 06:11:00,52.0,50.0,28.06,SE,135,0.0,0.0,93,0.00,,,0.00,Rainwise IP-100,2013-05-26 10:11:00,
2013-05-26 06:16:00,51.0,49.0,28.06,SE,135,0.0,0.0,92,0.00,,,0.00,Rainwise IP-100,2013-05-26 10:16:00,
2013-05-26 06:21:00,52.0,50.0,28.07,SE,135,0.0,0.0,93,0.00,,,0.00,Rainwise IP-100,2013-05-26 10:21:00,
2013-05-26 06:26:00,51.0,48.0,28.07,SE,135,0.0,0.0,90,0.00,,,0.00,Rainwise IP-100,2013-05-26 10:26:00,
2013-05-26 06:31:00,52.0,50.0,28.07,SE,135,0.0,0.0,92,0.00,,,0.00,Rainwise IP-100,2013-05-26 10:31:00,
2013-05-26 06:36:00,51.0,49.0,28.07,SE,135,0.0,0.0,92,0.00,,,0.00,Rainwise IP-100,2013-05-26 10:36:00,
2013-05-26 06:41:00,51.0,49.0,28.09,SE,135,0.0,0.0,92,0.00,,,0.00,Rainwise IP-100,2013-05-26 10:41:00,
2013-05-26 06:46:00,51.0,45.0,28.09,SE,135,0.0,0.0,80,0.00,,,0.00,Rainwise IP-100,2013-05-26 10:46:00,
2013-05-26 06:51:00,51.0,45.0,28.10,SE,135,0.0,0.0,80,0.00,,,0.00,Rainwise IP-100,2013-05-26 10:51:00,
2013-05-26 06:56:00,51.0,47.0,28.10,SE,135,0.0,0.0,84,0.00,,,0.00,Rainwise IP-100,2013-05-26 10:56:00,
2013-05-26 07:01:00,51.0,47.0,28.11,SE,135,0.0,0.0,85,0.00,,,0.00,Rainwise IP-100,2013-05-26 11:01:00,
2013-05-26 07:06:00,51.0,43.0,28.11,SE,135,0.0,0.0,73,0.00,,,0.00,Rainwise IP-100,2013-05-26 11:06:00,
2013-05-26 07:11:00,51.0,41.0,28.12,SE,135,0.0,0.0,68,0.00,,,0.00,Rainwise IP-100,2013-05-26 11:11:00,
2013-05-26 07:16:00,50.0,37.0,28.12,SE,135,0.0,0.0,60,0.06,,,0.01,Rainwise IP-100,2013-05-26 11:16:00,
2013-05-26 07:21:00,51.0,43.0,28.11,SE,135,0.0,0.0,74,0.06,,,0.01,Rainwise IP-100,2013-05-26 11:21:00,
2013-05-26 07:26:00,50.0,14.0,28.11,SE,135,0.0,0.0,21,0.00,,,0.01,Rainwise IP-100,2013-05-26 11:26:00,
2013-05-26 07:31:00,50.0,26.0,28.12,SE,135,0.0,0.0,38,0.00,,,0.01,Rainwise IP-100,2013-05-26 11:31:00,
2013-05-26 07:36:00,50.0,16.0,28.12,SE,135,0.0,0.0,26,0.06,,,0.02,Rainwise IP-100,2013-05-26 11:36:00,
2013-05-26 07:41:00,50.0,21.0,28.12,SE,135,0.0,0.0,31,0.12,,,0.03,Rainwise IP-100,2013-05-26 11:41:00,
2013-05-26 07:46:00,50.0,23.0,28.12,SE,135,0.0,0.0,33,0.12,,,0.04,Rainwise IP-100,2013-05-26 11:46:00,
2013-05-26 07:51:00,50.0,28.0,28.11,SE,135,0.0,0.0,42,0.12,,,0.05,Rainwise IP-100,2013-05-26 11:51:00,
2013-05-26 07:56:00,50.0,26.0,28.11,SE,135,0.0,0.0,39,0.06,,,0.05,Rainwise IP-100,2013-05-26 11:56:00,
2013-05-26 08:01:00,50.0,29.0,28.11,SE,135,0.0,0.0,44,0.00,,,0.05,Rainwise IP-100,2013-05-26 12:01:00,
2013-05-26 08:06:00,50.0,18.0,28.11,SE,135,0.0,0.0,27,0.00,,,0.05,Rainwise IP-100,2013-05-26 12:06:00,
2013-05-26 08:11:00,50.0,21.0,28.11,SE,135,0.0,0.0,31,0.00,,,0.05,Rainwise IP-100,2013-05-26 12:11:00,
2013-05-26 08:16:00,50.0,16.0,28.11,SE,135,0.0,0.0,25,0.00,,,0.05,Rainwise IP-100,2013-05-26 12:16:00,
2013-05-26 08:21:00,50.0,14.0,28.12,SE,135,0.0,0.0,23,0.00,,,0.05,Rainwise IP-100,2013-05-26 12:21:00,
2013-05-26 08:26:00,50.0,-23.0,28.12,SE,135,0.0,0.0,3,0.00,,,0.05,Rainwise IP-100,2013-05-26 12:26:00,
2013-05-26 08:31:00,50.0,-6.0,28.12,SE,135,0.0,0.0,8,0.00,,,0.05,Rainwise IP-100,2013-05-26 12:31:00,
2013-05-26 08:36:00,50.0,-23.0,28.12,SE,135,0.0,0.0,4,0.00,,,0.05,Rainwise IP-100,2013-05-26 12:36:00,
2013-05-26 08:41:00,51.0,4.0,28.12,SE,135,0.0,0.0,13,0.00,,,0.05,Rainwise IP-100,2013-05-26 12:41:00,
2013-05-26 08:46:00,50.0,0.0,28.12,SE,135,0.0,0.0,12,0.00,,,0.05,Rainwise IP-100,2013-05-26 12:46:00,
2013-05-26 08:51:00,51.0,11.0,28.12,SE,135,0.0,0.0,18,0.00,,,0.05,Rainwise IP-100,2013-05-26 12:51:00,
2013-05-26 08:56:00,51.0,4.0,28.12,NNW,337,0.0,0.0,13,0.00,,,0.05,Rainwise IP-100,2013-05-26 12:56:00,
2013-05-26 09:01:00,51.0,0.0,28.12,NNW,337,0.0,0.0,10,0.00,,,0.05,Rainwise IP-100,2013-05-26 13:01:00,
2013-05-26 09:06:00,52.0,0.0,28.12,NNW,337,0.0,0.0,9,0.00,,,0.05,Rainwise IP-100,2013-05-26 13:06:00,
2013-05-26 09:11:00,52.0,-6.0,28.12,NNW,337,0.0,0.0,8,0.00,,,0.05,Rainwise IP-100,2013-05-26 13:11:00,
2013-05-26 09:16:00,52.0,-13.0,28.12,NNW,337,0.0,0.0,6,0.00,,,0.05,Rainwise IP-100,2013-05-26 13:16:00,
2013-05-26 09:21:00,53.0,0.0,28.12,NNW,337,0.0,0.0,9,0.00,,,0.05,Rainwise IP-100,2013-05-26 13:21:00,
2013-05-26 09:26:00,53.0,-13.0,28.12,NNW,337,0.0,0.0,5,0.00,,,0.05,Rainwise IP-100,2013-05-26 13:26:00,
2013-05-26 09:31:00,53.0,8.0,28.12,NNW,337,0.0,0.0,15,0.00,,,0.05,Rainwise IP-100,2013-05-26 13:31:00,
2013-05-26 09:36:00,53.0,-13.0,28.12,NNW,337,0.0,0.0,5,0.00,,,0.05,Rainwise IP-100,2013-05-26 13:36:00,
2013-05-26 09:41:00,54.0,8.0,28.10,NNW,337,0.0,0.0,15,0.00,,,0.05,Rainwise IP-100,2013-05-26 13:41:00,
2013-05-26 09:46:00,54.0,-6.0,28.10,NNW,337,0.0,0.0,6,0.00,,,0.05,Rainwise IP-100,2013-05-26 13:46:00,
2013-05-26 09:51:00,54.0,-40.0,28.10,NNW,337,0.0,0.0,1,0.00,,,0.05,Rainwise IP-100,2013-05-26 13:51:00,
2013-05-26 09:56:00,55.0,-40.0,28.10,NNW,337,0.0,0.0,0,0.00,,,0.05,Rainwise IP-100,2013-05-26 13:56:00,
2013-05-26 10:01:00,56.0,-23.0,28.10,NNW,337,0.0,0.0,2,0.00,,,0.05,Rainwise IP-100,2013-05-26 14:01:00,
2013-05-26 10:06:00,56.0,-40.0,28.10,NNW,337,0.0,0.0,0,0.00,,,0.05,Rainwise IP-100,2013-05-26 14:06:00,
2013-05-26 10:11:00,57.0,-23.0,28.10,NNW,337,0.0,0.0,2,0.00,,,0.05,Rainwise IP-100,2013-05-26 14:11:00,
2013-05-26 10:16:00,58.0,-40.0,28.10,NNW,337,0.0,0.0,0,0.00,,,0.05,Rainwise IP-100,2013-05-26 14:16:00,
2013-05-26 10:21:00,58.0,4.0,28.10,South,180,0.0,2.0,10,0.00,,,0.05,Rainwise IP-100,2013-05-26 14:21:00,
2013-05-26 10:26:00,57.0,-6.0,28.10,SE,135,1.0,0.0,6,0.00,,,0.05,Rainwise IP-100,2013-05-26 14:26:00,
2013-05-26 10:31:00,58.0,-40.0,28.10,SE,135,0.0,2.0,0,0.00,,,0.05,Rainwise IP-100,2013-05-26 14:31:00,
2013-05-26 10:36:00,58.0,-40.0,28.10,SE,135,0.0,0.0,0,0.00,,,0.05,Rainwise IP-100,2013-05-26 14:36:00,
2013-05-26 10:41:00,58.0,-40.0,28.10,SE,135,0.0,0.0,0,0.00,,,0.05,Rainwise IP-100,2013-05-26 14:41:00,
2013-05-26 10:46:00,58.0,-40.0,28.10,SE,135,0.0,0.0,0,0.00,,,0.05,Rainwise IP-100,2013-05-26 14:46:00,
2013-05-26 10:51:00,58.0,43.0,28.10,SSW,202,1.0,0.0,57,0.00,,,0.05,Rainwise IP-100,2013-05-26 14:51:00,
2013-05-26 10:56:00,58.0,47.0,28.10,SSW,202,0.0,3.0,66,0.06,,,0.06,Rainwise IP-100,2013-05-26 14:56:00,
2013-05-26 11:01:00,58.0,47.5,28.10,SSW,202,0.0,0.0,67,0.06,,,0.06,Rainwise IP-100,2013-05-26 15:01:00,
2013-05-26 11:06:00,58.0,47.5,28.10,SSW,202,0.0,0.0,68,0.00,,,0.06,Rainwise IP-100,2013-05-26 15:06:00,
2013-05-26 11:11:00,59.0,52.0,28.10,SSW,202,0.0,0.0,78,0.00,,,0.06,Rainwise IP-100,2013-05-26 15:11:00,
2013-05-26 11:16:00,59.0,54.0,28.10,SSW,202,0.0,0.0,83,0.00,,,0.06,Rainwise IP-100,2013-05-26 15:16:00,
2013-05-26 11:21:00,60.0,56.0,28.10,SSW,202,0.0,2.0,86,0.00,,,0.06,Rainwise IP-100,2013-05-26 15:21:00,
2013-05-26 11:26:00,60.0,54.0,28.10,SSW,202,0.0,0.0,80,0.00,,,0.06,Rainwise IP-100,2013-05-26 15:26:00,
2013-05-26 11:31:00,61.0,55.0,28.10,SSW,202,0.0,0.0,82,0.00,,,0.06,Rainwise IP-100,2013-05-26 15:31:00,
2013-05-26 11:36:00,62.0,60.0,28.10,SSE,157,0.0,0.0,92,0.00,,,0.06,Rainwise IP-100,2013-05-26 15:36:00,
2013-05-26 11:41:00,63.0,60.5,28.10,South,180,0.0,3.0,91,0.00,,,0.06,Rainwise IP-100,2013-05-26 15:41:00,
2013-05-26 11:46:00,63.0,60.0,28.10,South,180,0.0,1.0,90,0.00,,,0.06,Rainwise IP-100,2013-05-26 15:46:00,
2013-05-26 11:51:00,63.0,60.5,28.10,South,180,0.0,0.0,91,0.00,,,0.06,Rainwise IP-100,2013-05-26 15:51:00,
2013-05-26 11:56:00,64.0,61.0,28.10,SW,225,0.0,3.0,90,0.00,,,0.06,Rainwise IP-100,2013-05-26 15:56:00,
2013-05-26 12:01:00,66.0,62.0,28.10,SSE,157,2.0,2.0,88,0.00,,,0.06,Rainwise IP-100,2013-05-26 16:01:00,
2013-05-26 12:06:00,65.0,62.0,28.10,WSW,247,0.0,3.0,90,0.00,,,0.06,Rainwise IP-100,2013-05-26 16:06:00,
2013-05-26 12:11:00,65.0,62.0,28.10,WNW,292,0.0,0.0,90,0.00,,,0.06,Rainwise IP-100,2013-05-26 16:11:00,
2013-05-26 12:16:00,65.0,60.5,28.10,WNW,292,0.0,0.0,85,0.00,,,0.06,Rainwise IP-100,2013-05-26 16:16:00,
2013-05-26 12:21:00,66.0,60.0,28.09,SSW,202,0.0,0.0,82,0.00,,,0.06,Rainwise IP-100,2013-05-26 16:21:00,
2013-05-26 12:26:00,67.0,57.5,28.09,SSW,202,0.0,0.0,72,0.00,,,0.06,Rainwise IP-100,2013-05-26 16:26:00,
2013-05-26 12:31:00,67.0,54.5,28.09,West,270,0.0,2.0,64,0.00,,,0.06,Rainwise IP-100,2013-05-26 16:31:00,
2013-05-26 12:36:00,67.0,60.0,28.09,South,180,0.0,0.0,77,0.00,,,0.06,Rainwise IP-100,2013-05-26 16:36:00,
2013-05-26 12:41:00,68.0,53.0,28.08,SSE,157,3.0,4.0,58,0.00,,,0.06,Rainwise IP-100,2013-05-26 16:41:00,
2013-05-26 12:46:00,67.0,53.0,28.08,NNW,337,0.0,3.0,60,0.00,,,0.06,Rainwise IP-100,2013-05-26 16:46:00,
2013-05-26 12:51:00,67.0,54.0,28.08,WNW,292,0.0,3.0,62,0.00,,,0.06,Rainwise IP-100,2013-05-26 16:51:00,
2013-05-26 12:56:00,67.0,50.0,28.08,West,270,3.0,3.0,54,0.00,,,0.06,Rainwise IP-100,2013-05-26 16:56:00,
2013-05-26 13:01:00,66.0,50.0,28.08,WSW,247,0.0,4.0,57,0.00,,,0.06,Rainwise IP-100,2013-05-26 17:01:00,
2013-05-26 13:06:00,67.0,53.0,28.08,SW,225,0.0,3.0,60,0.00,,,0.06,Rainwise IP-100,2013-05-26 17:06:00,
2013-05-26 13:11:00,68.0,53.5,28.07,WNW,292,0.0,3.0,60,0.00,,,0.06,Rainwise IP-100,2013-05-26 17:11:00,
2013-05-26 13:16:00,68.0,52.0,28.07,North,360,0.0,3.0,56,0.00,,,0.06,Rainwise IP-100,2013-05-26 17:16:00,
2013-05-26 13:21:00,68.0,52.0,28.07,WSW,247,0.0,1.0,56,0.00,,,0.06,Rainwise IP-100,2013-05-26 17:21:00,
2013-05-26 13:26:00,67.0,51.0,28.07,North,360,0.0,2.0,57,0.00,,,0.06,Rainwise IP-100,2013-05-26 17:26:00,
2013-05-26 13:31:00,68.0,54.0,28.07,NW,315,0.0,0.0,61,0.00,,,0.06,Rainwise IP-100,2013-05-26 17:31:00,
2013-05-26 13:36:00,66.0,51.0,28.07,West,270,4.0,4.0,59,0.00,,,0.06,Rainwise IP-100,2013-05-26 17:36:00,
2013-05-26 13:41:00,67.0,51.0,28.06,WNW,292,0.0,4.0,56,0.00,,,0.06,Rainwise IP-100,2013-05-26 17:41:00,
2013-05-26 13:46:00,66.0,49.0,28.06,West,270,4.0,4.0,54,0.00,,,0.06,Rainwise IP-100,2013-05-26 17:46:00,
2013-05-26 13:51:00,67.0,51.0,28.06,NW,315,2.0,2.0,57,0.00,,,0.06,Rainwise IP-100,2013-05-26 17:51:00,
2013-05-26 13:56:00,67.0,51.0,28.05,WNW,292,0.0,2.0,57,0.00,,,0.06,Rainwise IP-100,2013-05-26 17:56:00,
2013-05-26 14:01:00,68.0,52.0,28.05,WNW,292,0.0,0.0,57,0.00,,,0.06,Rainwise IP-100,2013-05-26 18:01:00,
2013-05-26 14:06:00,68.0,52.0,28.05,SW,225,0.0,3.0,57,0.00,,,0.06,Rainwise IP-100,2013-05-26 18:06:00,
2013-05-26 14:11:00,69.0,54.5,28.04,South,180,0.0,3.0,61,0.00,,,0.06,Rainwise IP-100,2013-05-26 18:11:00,
2013-05-26 14:16:00,69.0,53.0,28.04,WNW,292,0.0,0.0,57,0.00,,,0.06,Rainwise IP-100,2013-05-26 18:16:00,
2013-05-26 14:21:00,71.0,54.0,28.03,WSW,247,0.0,0.0,55,0.00,,,0.06,Rainwise IP-100,2013-05-26 18:21:00,
2013-05-26 14:26:00,70.0,52.0,28.03,NW,315,3.0,5.0,53,0.00,,,0.06,Rainwise IP-100,2013-05-26 18:26:00,
2013-05-26 14:31:00,70.0,52.0,28.03,WNW,292,5.0,5.0,53,0.00,,,0.06,Rainwise IP-100,2013-05-26 18:31:00,
2013-05-26 14:36:00,69.0,53.5,28.03,WNW,292,0.0,5.0,58,0.00,,,0.06,Rainwise IP-100,2013-05-26 18:36:00,
2013-05-26 14:41:00,69.0,53.5,28.03,NW,315,3.0,5.0,58,0.00,,,0.06,Rainwise IP-100,2013-05-26 18:41:00,
2013-05-26 14:46:00,70.0,53.5,28.03,WNW,292,0.0,5.0,55,0.00,,,0.06,Rainwise IP-100,2013-05-26 18:46:00,
2013-05-26 14:51:00,71.0,54.5,28.02,SW,225,1.0,4.0,56,0.00,,,0.06,Rainwise IP-100,2013-05-26 18:51:00,
2013-05-26 14:56:00,72.0,53.0,28.02,WSW,247,0.0,4.0,51,0.00,,,0.06,Rainwise IP-100,2013-05-26 18:56:00,
2013-05-26 15:01:00,72.0,53.0,28.01,WSW,247,0.0,4.0,50,0.00,,,0.06,Rainwise IP-100,2013-05-26 19:01:00,
2013-05-26 15:06:00,72.0,53.0,28.01,WSW,247,0.0,3.0,50,0.00,,,0.06,Rainwise IP-100,2013-05-26 19:06:00,
2013-05-26 15:11:00,72.0,53.0,28.01,WNW,292,0.0,2.0,50,0.00,,,0.06,Rainwise IP-100,2013-05-26 19:11:00,
2013-05-26 15:16:00,72.0,53.0,28.01,WNW,292,0.0,0.0,50,0.00,,,0.06,Rainwise IP-100,2013-05-26 19:16:00,
2013-05-26 15:21:00,72.0,53.0,28.01,WNW,292,0.0,0.0,50,0.00,,,0.06,Rainwise IP-100,2013-05-26 19:21:00,
2013-05-26 15:26:00,71.0,51.0,28.02,SSW,202,4.0,6.0,50,0.00,,,0.06,Rainwise IP-100,2013-05-26 19:26:00,
2013-05-26 15:31:00,71.0,51.0,28.02,SSW,202,4.0,6.0,50,0.00,,,0.06,Rainwise IP-100,2013-05-26 19:31:00,
2013-05-26 15:36:00,71.0,52.0,28.02,South,180,1.0,6.0,51,0.00,,,0.06,Rainwise IP-100,2013-05-26 19:36:00,
2013-05-26 15:41:00,73.0,52.0,28.00,NNW,337,0.0,2.0,48,0.00,,,0.06,Rainwise IP-100,2013-05-26 19:41:00,
2013-05-26 15:46:00,74.0,53.5,28.00,ESE,112,0.0,2.0,48,0.00,,,0.06,Rainwise IP-100,2013-05-26 19:46:00,
2013-05-26 15:51:00,75.0,51.0,28.00,SSE,157,0.0,3.0,43,0.00,,,0.06,Rainwise IP-100,2013-05-26 19:51:00,
2013-05-26 15:56:00,75.0,53.0,28.00,South,180,0.0,0.0,46,0.00,,,0.06,Rainwise IP-100,2013-05-26 19:56:00,
2013-05-26 16:01:00,76.0,51.0,27.99,NNE,22,0.0,3.0,42,0.00,,,0.06,Rainwise IP-100,2013-05-26 20:01:00,
2013-05-26 16:06:00,76.0,52.0,27.99,SSE,157,0.0,2.0,43,0.00,,,0.06,Rainwise IP-100,2013-05-26 20:06:00,
2013-05-26 16:11:00,77.0,52.0,27.98,SW,225,0.0,0.0,42,0.00,,,0.06,Rainwise IP-100,2013-05-26 20:11:00,
2013-05-26 16:16:00,78.0,50.5,27.98,North,360,0.0,2.0,38,0.00,,,0.06,Rainwise IP-100,2013-05-26 20:16:00,
2013-05-26 16:21:00,78.0,49.0,27.98,NNW,337,0.0,0.0,36,0.00,,,0.06,Rainwise IP-100,2013-05-26 20:21:00,
2013-05-26 16:26:00,77.0,52.0,27.98,WNW,292,2.0,2.0,41,0.00,,,0.06,Rainwise IP-100,2013-05-26 20:26:00,
2013-05-26 16:31:00,77.0,50.5,27.99,East,90,0.0,5.0,39,0.00,,,0.06,Rainwise IP-100,2013-05-26 20:31:00,
2013-05-26 16:36:00,76.0,49.0,27.99,NNW,337,0.0,5.0,39,0.00,,,0.06,Rainwise IP-100,2013-05-26 20:36:00,
2013-05-26 16:41:00,76.0,50.0,27.98,West,270,1.0,3.0,40,0.00,,,0.06,Rainwise IP-100,2013-05-26 20:41:00,
2013-05-26 16:46:00,75.0,48.0,27.98,WNW,292,0.0,4.0,39,0.00,,,0.06,Rainwise IP-100,2013-05-26 20:46:00,
2013-05-26 16:51:00,75.0,49.0,28.00,North,360,2.0,5.0,40,0.00,,,0.06,Rainwise IP-100,2013-05-26 20:51:00,
2013-05-26 16:56:00,75.0,51.0,28.00,WSW,247,0.0,5.0,43,0.00,,,0.06,Rainwise IP-100,2013-05-26 20:56:00,
2013-05-26 17:01:00,73.0,48.0,28.00,SSE,157,1.0,4.0,42,0.00,,,0.06,Rainwise IP-100,2013-05-26 21:01:00,
2013-05-26 17:06:00,73.0,49.0,28.00,SSW,202,2.0,3.0,43,0.00,,,0.06,Rainwise IP-100,2013-05-26 21:06:00,
2013-05-26 17:11:00,72.0,48.0,28.00,ESE,112,2.0,5.0,43,0.00,,,0.06,Rainwise IP-100,2013-05-26 21:11:00,
2013-05-26 17:16:00,71.0,49.0,28.00,WNW,292,1.0,5.0,46,0.00,,,0.06,Rainwise IP-100,2013-05-26 21:16:00,
2013-05-26 17:21:00,71.0,51.0,28.00,SSW,202,2.0,4.0,50,0.00,,,0.06,Rainwise IP-100,2013-05-26 21:21:00,
2013-05-26 17:26:00,70.0,49.0,28.00,NNW,337,0.0,7.0,47,0.00,,,0.06,Rainwise IP-100,2013-05-26 21:26:00,
2013-05-26 17:31:00,70.0,50.5,28.00,SW,225,3.0,4.0,50,0.00,,,0.06,Rainwise IP-100,2013-05-26 21:31:00,
2013-05-26 17:36:00,70.0,50.0,27.99,WSW,247,0.0,4.0,48,0.00,,,0.06,Rainwise IP-100,2013-05-26 21:36:00,
2013-05-26 17:41:00,70.0,50.0,28.00,NNE,22,0.0,1.0,49,0.00,,,0.06,Rainwise IP-100,2013-05-26 21:41:00,
2013-05-26 17:46:00,70.0,51.0,28.00,ESE,112,0.0,0.0,51,0.00,,,0.06,Rainwise IP-100,2013-05-26 21:46:00,
2013-05-26 17:51:00,70.0,51.0,28.00,South,180,0.0,1.0,51,0.00,,,0.06,Rainwise IP-100,2013-05-26 21:51:00,
2013-05-26 17:56:00,70.0,50.5,28.00,ENE,67,0.0,1.0,50,0.00,,,0.06,Rainwise IP-100,2013-05-26 21:56:00,
2013-05-26 18:01:00,70.0,50.5,27.99,NNE,22,0.0,3.0,50,0.00,,,0.06,Rainwise IP-100,2013-05-26 22:01:00,
2013-05-26 18:06:00,70.0,51.0,27.99,SW,225,0.0,6.0,51,0.00,,,0.06,Rainwise IP-100,2013-05-26 22:06:00,
2013-05-26 18:11:00,70.0,52.0,27.99,SW,225,0.0,0.0,53,0.00,,,0.06,Rainwise IP-100,2013-05-26 22:11:00,
2013-05-26 18:16:00,69.0,50.5,27.99,NE,45,0.0,2.0,52,0.00,,,0.06,Rainwise IP-100,2013-05-26 22:16:00,
2013-05-26 18:21:00,69.0,50.0,27.99,SE,135,0.0,2.0,51,0.00,,,0.06,Rainwise IP-100,2013-05-26 22:21:00,
2013-05-26 18:26:00,69.0,51.0,27.99,North,360,0.0,2.0,53,0.00,,,0.06,Rainwise IP-100,2013-05-26 22:26:00,
2013-05-26 18:31:00,69.0,50.5,27.99,WSW,247,0.0,1.0,52,0.00,,,0.06,Rainwise IP-100,2013-05-26 22:31:00,
2013-05-26 18:36:00,69.0,50.0,27.99,South,180,0.0,1.0,51,0.00,,,0.06,Rainwise IP-100,2013-05-26 22:36:00,
2013-05-26 18:41:00,69.0,51.0,27.98,WNW,292,0.0,2.0,53,0.00,,,0.06,Rainwise IP-100,2013-05-26 22:41:00,
2013-05-26 18:46:00,69.0,51.0,27.98,WNW,292,0.0,0.0,53,0.00,,,0.06,Rainwise IP-100,2013-05-26 22:46:00,
2013-05-26 18:51:00,68.0,51.0,27.98,NNE,22,1.0,3.0,55,0.00,,,0.06,Rainwise IP-100,2013-05-26 22:51:00,
2013-05-26 18:56:00,68.0,51.0,27.98,NNE,22,0.0,2.0,55,0.00,,,0.06,Rainwise IP-100,2013-05-26 22:56:00,
2013-05-26 19:01:00,68.0,50.5,27.98,NNW,337,0.0,0.0,53,0.00,,,0.06,Rainwise IP-100,2013-05-26 23:01:00,
2013-05-26 19:06:00,68.0,50.5,27.98,NNW,337,0.0,0.0,53,0.00,,,0.06,Rainwise IP-100,2013-05-26 23:06:00,
2013-05-26 19:11:00,68.0,51.0,27.99,SE,135,1.0,2.0,55,0.00,,,0.06,Rainwise IP-100,2013-05-26 23:11:00,
2013-05-26 19:16:00,68.0,52.0,27.99,SSE,157,1.0,2.0,56,0.00,,,0.06,Rainwise IP-100,2013-05-26 23:16:00,
2013-05-26 19:21:00,68.0,51.0,27.99,SSE,157,1.0,5.0,55,0.00,,,0.06,Rainwise IP-100,2013-05-26 23:21:00,
2013-05-26 19:26:00,68.0,51.0,28.00,SSW,202,0.0,3.0,55,0.00,,,0.06,Rainwise IP-100,2013-05-26 23:26:00,
2013-05-26 19:31:00,68.0,51.0,28.00,SW,225,0.0,2.0,55,0.00,,,0.06,Rainwise IP-100,2013-05-26 23:31:00,
2013-05-26 19:36:00,68.0,52.0,28.00,SSW,202,3.0,3.0,56,0.00,,,0.06,Rainwise IP-100,2013-05-26 23:36:00,
2013-05-26 19:41:00,67.0,53.0,28.00,SE,135,0.0,3.0,60,0.00,,,0.06,Rainwise IP-100,2013-05-26 23:41:00,
2013-05-26 19:46:00,67.0,54.0,28.00,SE,135,0.0,0.0,62,0.00,,,0.06,Rainwise IP-100,2013-05-26 23:46:00,
2013-05-26 19:51:00,66.0,54.0,28.00,SE,135,0.0,0.0,65,0.00,,,0.06,Rainwise IP-100,2013-05-26 23:51:00,
2013-05-26 19:56:00,65.0,54.0,28.00,SE,135,0.0,0.0,67,0.00,,,0.06,Rainwise IP-100,2013-05-26 23:56:00,
2013-05-26 20:01:00,65.0,54.0,28.01,SE,135,0.0,0.0,68,0.00,,,0.06,Rainwise IP-100,2013-05-27 00:01:00,
2013-05-26 20:06:00,64.0,53.5,28.01,SE,135,0.0,0.0,69,0.00,,,0.06,Rainwise IP-100,2013-05-27 00:06:00,
2013-05-26 20:11:00,64.0,53.5,28.01,NE,45,0.0,0.0,69,0.00,,,0.06,Rainwise IP-100,2013-05-27 00:11:00,
2013-05-26 20:16:00,64.0,56.0,28.01,NE,45,0.0,1.0,75,0.00,,,0.06,Rainwise IP-100,2013-05-27 00:16:00,
2013-05-26 20:21:00,64.0,52.0,28.01,ENE,67,0.0,0.0,65,0.00,,,0.06,Rainwise IP-100,2013-05-27 00:21:00,
2013-05-26 20:26:00,64.0,54.0,28.01,ENE,67,0.0,0.0,70,0.00,,,0.06,Rainwise IP-100,2013-05-27 00:26:00,
2013-05-26 20:31:00,64.0,56.5,28.01,NNE,22,0.0,2.0,77,0.00,,,0.06,Rainwise IP-100,2013-05-27 00:31:00,
2013-05-26 20:36:00,63.0,56.0,28.01,NNE,22,0.0,0.0,78,0.00,,,0.06,Rainwise IP-100,2013-05-27 00:36:00,
2013-05-26 20:41:00,62.0,54.5,28.02,NNE,22,0.0,0.0,77,0.00,,,0.06,Rainwise IP-100,2013-05-27 00:41:00,
2013-05-26 20:46:00,62.0,56.0,28.02,NNE,22,0.0,0.0,80,0.00,,,0.06,Rainwise IP-100,2013-05-27 00:46:00,
2013-05-26 20:51:00,61.0,57.0,28.02,NNE,22,0.0,0.0,87,0.00,,,0.06,Rainwise IP-100,2013-05-27 00:51:00,
2013-05-26 20:56:00,60.0,54.5,28.02,NNE,22,0.0,0.0,83,0.00,,,0.06,Rainwise IP-100,2013-05-27 00:56:00,
2013-05-26 21:00:00,60.0,54.5,28.03,NNE,22,0.0,0.0,83,0.00,,,0.06,Rainwise IP-100,2013-05-27 01:00:00,
2013-05-26 21:05:00,59.0,55.0,28.03,NNE,22,0.0,0.0,88,0.00,,,0.06,Rainwise IP-100,2013-05-27 01:05:00,
2013-05-26 21:10:00,59.0,55.0,28.03,NNE,22,0.0,0.0,88,0.00,,,0.06,Rainwise IP-100,2013-05-27 01:10:00,
2013-05-26 21:15:00,59.0,56.5,28.03,NNE,22,0.0,0.0,92,0.00,,,0.06,Rainwise IP-100,2013-05-27 01:15:00,
2013-05-26 21:20:00,59.0,56.5,28.04,NNE,22,0.0,0.0,92,0.00,,,0.06,Rainwise IP-100,2013-05-27 01:20:00,
2013-05-26 21:25:00,58.0,56.5,28.04,NNE,22,0.0,0.0,93,0.00,,,0.06,Rainwise IP-100,2013-05-27 01:25:00,
2013-05-26 21:30:00,58.0,55.0,28.04,NNE,22,0.0,0.0,90,0.00,,,0.06,Rainwise IP-100,2013-05-27 01:30:00,
2013-05-26 21:35:00,58.0,56.5,28.04,NNE,22,0.0,0.0,93,0.00,,,0.06,Rainwise IP-100,2013-05-27 01:35:00,
2013-05-26 21:40:00,58.0,56.5,28.04,NNE,22,0.0,0.0,94,0.00,,,0.06,Rainwise IP-100,2013-05-27 01:40:00,
2013-05-26 21:45:00,57.0,55.0,28.04,NNE,22,0.0,0.0,94,0.00,,,0.06,Rainwise IP-100,2013-05-27 01:45:00,
2013-05-26 21:50:00,57.0,55.0,28.04,NNE,22,0.0,0.0,94,0.00,,,0.06,Rainwise IP-100,2013-05-27 01:50:00,
2013-05-26 21:55:00,57.0,55.0,28.04,NNE,22,0.0,0.0,94,0.00,,,0.06,Rainwise IP-100,2013-05-27 01:55:00,
2013-05-26 22:00:00,56.0,54.0,28.05,NNE,22,0.0,0.0,93,0.00,,,0.06,Rainwise IP-100,2013-05-27 02:00:00,
2013-05-26 22:05:00,56.0,53.0,28.05,NNE,22,0.0,0.0,89,0.00,,,0.06,Rainwise IP-100,2013-05-27 02:05:00,
2013-05-26 22:10:00,56.0,53.0,28.06,NNE,22,0.0,0.0,88,0.00,,,0.06,Rainwise IP-100,2013-05-27 02:10:00,
2013-05-26 22:15:00,55.0,52.0,28.06,NNE,22,0.0,0.0,89,0.00,,,0.06,Rainwise IP-100,2013-05-27 02:15:00,
2013-05-26 22:20:00,55.0,51.0,28.06,NNE,22,0.0,0.0,86,0.00,,,0.06,Rainwise IP-100,2013-05-27 02:20:00,
2013-05-26 22:25:00,55.0,52.0,28.06,NNE,22,0.0,0.0,89,0.00,,,0.06,Rainwise IP-100,2013-05-27 02:25:00,
2013-05-26 22:30:00,55.0,51.0,28.06,NNE,22,0.0,0.0,87,0.00,,,0.06,Rainwise IP-100,2013-05-27 02:30:00,
2013-05-26 22:35:00,54.0,50.5,28.06,NNE,22,0.0,0.0,89,0.00,,,0.06,Rainwise IP-100,2013-05-27 02:35:00,
2013-05-26 22:40:00,54.0,50.5,28.07,NNE,22,0.0,0.0,89,0.00,,,0.06,Rainwise IP-100,2013-05-27 02:40:00,
2013-05-26 22:45:00,54.0,50.0,28.07,NNE,22,0.0,0.0,86,0.00,,,0.06,Rainwise IP-100,2013-05-27 02:45:00,
2013-05-26 22:50:00,54.0,50.0,28.07,NNE,22,0.0,0.0,86,0.00,,,0.06,Rainwise IP-100,2013-05-27 02:50:00,
2013-05-26 22:55:00,53.0,47.0,28.07,NNE,22,0.0,0.0,81,0.00,,,0.06,Rainwise IP-100,2013-05-27 02:55:00,
2013-05-26 23:00:00,53.0,47.5,28.08,NNE,22,0.0,0.0,82,0.00,,,0.06,Rainwise IP-100,2013-05-27 03:00:00,
2013-05-26 23:05:00,53.0,47.0,28.08,NNE,22,0.0,0.0,79,0.00,,,0.06,Rainwise IP-100,2013-05-27 03:05:00,
2013-05-26 23:10:00,53.0,47.0,28.07,NNE,22,0.0,0.0,80,0.00,,,0.06,Rainwise IP-100,2013-05-27 03:10:00,
2013-05-26 23:15:00,52.0,45.0,28.07,NNE,22,0.0,0.0,78,0.00,,,0.06,Rainwise IP-100,2013-05-27 03:15:00,
2013-05-26 23:20:00,53.0,46.0,28.06,NNE,22,0.0,0.0,77,0.00,,,0.06,Rainwise IP-100,2013-05-27 03:20:00,
2013-05-26 23:25:00,52.0,42.0,28.06,NNE,22,0.0,0.0,68,0.00,,,0.06,Rainwise IP-100,2013-05-27 03:25:00,
2013-05-26 23:30:00,52.0,40.0,28.06,NNE,22,0.0,0.0,65,0.00,,,0.06,Rainwise IP-100,2013-05-27 03:30:00,
2013-05-26 23:35:00,52.0,39.0,28.06,NNE,22,0.0,0.0,62,0.00,,,0.06,Rainwise IP-100,2013-05-27 03:35:00,
2013-05-26 23:40:00,52.0,40.0,28.07,NNE,22,0.0,0.0,65,0.00,,,0.06,Rainwise IP-100,2013-05-27 03:40:00,
2013-05-26 23:45:00,51.0,39.0,28.07,NNE,22,0.0,0.0,64,0.00,,,0.06,Rainwise IP-100,2013-05-27 03:45:00,
2013-05-26 23:50:00,52.0,40.0,28.07,NNE,22,0.0,0.0,63,0.00,,,0.06,Rainwise IP-100,2013-05-27 03:50:00,
2013-05-26 23:55:00,52.0,28.0,28.07,NNE,22,0.0,0.0,39,0.00,,,0.06,Rainwise IP-100,2013-05-27 03:55:00,